Location: *
(51.0333°S, 178.4667°E)
Time: 01:14:14
(UTC+00:00)

CZ-4 R/B - Pass Details

Date: 29 February 2020
Orbit: 531 x 599 km, 97.8° (Epoch: 08 April)

Event Time Altitude Azimuth Distance (km) Brightness Sun altitude
Rises 07:37:48 0° 167° (SSE) 2,846 5.1 -6.1°
Reaches altitude 10° 07:39:57 10° 168° (SSE) 1,947 4.2 -6.4°
Maximum altitude 07:44:12 83° 254° (WSW) 614 1.6 -7.0°
Drops below altitude 10° 07:48:27 10° 342° (NNW) 1,949 4.1 -7.7°
Sets 07:50:37 0° 342° (NNW) 2,848 4.9 -8.0°
